Location: Sevilla
(37.3933°N, 5.9839°W)
Time: 04:34:49
(UTC+02:00)

Transit 2A Rocket - Pass Details

Date: 27 June 2024
Orbit: 582 x 910 km, 66.7° (Epoch: 15 July)

Event Time Altitude Azimuth Distance (km) Brightness Sun altitude
Rises 06:29:54 0° 332° (NNW) 3,531 8.5 -6.7°
Reaches altitude 10° 06:32:25 10° 333° (NNW) 2,598 7.9 -6.3°
Maximum altitude 06:38:33 84° 61° (ENE) 915 5.5 -5.3°
Drops below altitude 10° 06:44:31 10° 151° (SSE) 2,532 7.6 -4.3°
Sets 06:46:57 0° 152° (SSE) 3,436 8.3 -3.9°
